TimeCST,TemperatureF,Dew PointF,Humidity,Sea Level PressureIn,VisibilityMPH,Wind Direction,Wind SpeedMPH,Gust SpeedMPH,PrecipitationIn,Events,Conditions,WindDirDegrees,DateUTC
1:07 AM,44.6,37.4,76,29.98,10.0,Calm,Calm,-,N/A,,Overcast,0,2012-12-01 07:07:00
1:53 AM,46.9,39.0,74,29.98,10.0,Calm,Calm,-,N/A,,Overcast,0,2012-12-01 07:53:00
3:53 AM,51.1,45.0,80,29.95,7.0,SSE,6.9,-,N/A,,Overcast,160,2012-12-01 09:53:00
4:53 AM,54.0,48.9,83,29.92,6.0,South,8.1,-,N/A,,Haze,170,2012-12-01 10:53:00
5:53 AM,54.0,50.0,86,29.91,6.0,South,9.2,-,N/A,,Overcast,170,2012-12-01 11:53:00
6:53 AM,55.0,51.1,86,29.90,5.0,SSE,8.1,-,N/A,,Overcast,160,2012-12-01 12:53:00
7:53 AM,55.9,52.0,87,29.91,5.0,SSE,4.6,-,N/A,,Overcast,160,2012-12-01 13:53:00
8:18 AM,55.4,51.8,88,29.90,2.5,Calm,Calm,-,N/A,,Overcast,0,2012-12-01 14:18:00
8:29 AM,55.4,51.8,88,29.89,2.5,SSE,3.5,-,N/A,,Overcast,160,2012-12-01 14:29:00
8:36 AM,55.4,53.6,94,29.89,3.0,South,6.9,-,N/A,,Overcast,170,2012-12-01 14:36:00
9:53 AM,57.9,54.0,87,29.90,4.0,South,6.9,-,N/A,,Overcast,180,2012-12-01 15:53:00
10:01 AM,57.2,53.6,88,29.88,4.0,South,8.1,-,N/A,,Overcast,170,2012-12-01 16:01:00
10:53 AM,60.1,55.0,83,29.88,5.0,SSE,8.1,-,N/A,,Haze,160,2012-12-01 16:53:00
11:48 AM,62.6,55.4,77,29.85,5.0,South,9.2,-,N/A,,Haze,180,2012-12-01 17:48:00
11:53 AM,62.1,55.0,78,29.85,5.0,South,9.2,-,N/A,,Haze,180,2012-12-01 17:53:00
2:14 PM,64.4,55.4,73,29.80,8.0,South,5.8,-,N/A,,Overcast,170,2012-12-01 20:14:00
2:53 PM,64.9,55.9,73,29.79,9.0,South,8.1,-,N/A,,Mostly Cloudy,170,2012-12-01 20:53:00
3:31 PM,64.4,55.4,73,29.79,9.0,SSE,4.6,-,N/A,,Mostly Cloudy,160,2012-12-01 21:31:00
3:53 PM,64.0,55.9,75,29.78,9.0,SSE,6.9,-,N/A,,Mostly Cloudy,150,2012-12-01 21:53:00
4:53 PM,57.9,53.1,84,29.80,6.0,Calm,Calm,-,N/A,,Haze,0,2012-12-01 22:53:00
5:53 PM,54.0,50.0,86,29.83,6.0,Calm,Calm,-,N/A,,Mostly Cloudy,0,2012-12-01 23:53:00
6:53 PM,48.0,46.9,96,29.83,5.0,Calm,Calm,-,N/A,,Partly Cloudy,0,2012-12-02 00:53:00
7:29 PM,46.4,46.4,100,29.84,1.2,Calm,Calm,-,N/A,,Clear,0,2012-12-02 01:29:00
7:32 PM,48.2,46.4,93,29.84,0.5,Calm,Calm,-,N/A,Fog,Fog,0,2012-12-02 01:32:00
7:53 PM,48.9,46.9,93,29.85,0.5,Calm,Calm,-,N/A,Fog,Fog,0,2012-12-02 01:53:00
8:03 PM,44.6,42.8,93,29.84,0.2,Calm,Calm,-,N/A,Fog,Fog,0,2012-12-02 02:03:00
8:12 PM,44.6,42.8,93,29.84,0.2,South,3.5,-,N/A,Fog,Fog,190,2012-12-02 02:12:00
8:23 PM,44.6,42.8,93,29.84,0.2,SW,4.6,-,N/A,Fog,Fog,220,2012-12-02 02:23:00
8:36 PM,44.6,42.8,93,29.84,0.2,WSW,4.6,-,N/A,Fog,Fog,240,2012-12-02 02:36:00
8:53 PM,45.0,44.1,97,29.85,0.2,Calm,Calm,-,N/A,Fog,Fog,0,2012-12-02 02:53:00
9:31 PM,44.6,44.6,100,29.86,0.2,South,3.5,-,N/A,Fog,Fog,170,2012-12-02 03:31:00
9:53 PM,45.0,44.1,97,29.86,0.2,SSE,3.5,-,N/A,Fog,Fog,160,2012-12-02 03:53:00
10:11 PM,44.6,44.6,100,29.87,0.2,SE,3.5,-,N/A,Fog,Fog,140,2012-12-02 04:11:00
10:20 PM,44.6,44.6,100,29.86,0.2,SSE,4.6,-,N/A,Fog,Fog,150,2012-12-02 04:20:00
10:30 PM,42.8,42.8,100,29.86,0.2,SSE,4.6,-,N/A,Fog,Fog,160,2012-12-02 04:30:00
10:53 PM,41.0,39.9,96,29.87,0.2,South,3.5,-,N/A,Fog,Fog,180,2012-12-02 04:53:00
11:06 PM,41.0,39.2,93,29.88,0.2,Calm,Calm,-,N/A,Fog,Fog,0,2012-12-02 05:06:00
11:39 PM,41.0,39.2,93,29.89,0.2,Calm,Calm,-,N/A,Fog,Fog,0,2012-12-02 05:39:00
11:53 PM,39.9,37.9,93,29.90,0.2,Calm,Calm,-,N/A,Fog,Fog,0,2012-12-02 05:53:00